STARLINK-31476, 59523

Orbit data source: Space-Track

STARLINK-31476, 59523 is a payload satellite owned by SpaceX/Seattle (US) in LEO that was launched on Wed, 17 Apr 2024 UTC via an FALCON 9 launch vehicle from the Air Force Eastern Test Range (AFETR). Payload-class satellites include a variety of spacecraft equipped with specific instruments for various scientific and technological missions. These include communications satellites like Starlink; space stations such as the ISS; scientific satellites like the Hubble; Earth observation satellites from companies like Planet Labs, Umbra, and HawkEye 360; GPS; miniature CubeSats for education and research; and military/defense satellites.

Loading next visibility...
Identifier
59523, 2024-073N
Orbit
LEO
Country
Flag of USUS
Related business
Manufacturer
SpaceX/Seattle
Mission
Operational spacecraft
Bus & Motor
STARLINK V2M, Unknown motor
Mass
730 kg wet, ~700 kg dry
Launch date (UTC)
2024-04-17 (1 year ago)
Launch vehicle
FALCON 9
Launch site
Air Force Eastern Test Range (AFETR)
Object type
Payload
Rocket body
Debris
Shape & HBR
Unknown
Radar Cross Section
Large (>1 m²)

Expand to show TLE details & history
Last TLE update: 2 days ago

TLE from 2 days ago
0 STARLINK-31476
1 59523U 24073N   25259.30228676  .00003122  00000-0  12289-3 0  9990
2 59523  43.0019 223.0084 0000907 234.3480 125.7288 15.27589284 79507
Epoch: 2025-09-16T07:15Z
TLE epoch observation values (Epoch: 2025-09-16T07:15:17.576Z)
Latitude
0.00005°
Longitude
118.69068°
Altitude
483.16 km
Speed
7.625 km/s
True Right ascension
14h 52m 02s
True Declination
0° 00' 00"
Sunlit
Object was in daylight at epoch
Visualization orbit readout
Latitude
Unknown
Longitude
Unknown
Altitude
Unknown
Speed
Unknown
Apparent Right ascension
Unknown
Apparent Declination
Unknown
Sunlit
N/A
Visualization observer readout
Local Sidereal Time
14:34:28
Azimuth
Unknown
Elevation
Unknown
Doppler factor
Unknown
Orbital elements
Apogee altitude
485.589 km
Perigee altitude
484.344 km
Semi-major axis
6,863.103 km
Eccentricity
0.00009
Inclination
43.0019°
RAAN
223.0084°
Arg. of periapsis
234.348°
True anomaly
125.73724°
Mean anomaly
125.7288°
Eccentric anomaly
125.73302°
Mean motion
3.81735 °/min
Orbital period
94.31 mins
BSTAR
0.00012289
Loading maneuver chart data...
Computing Atmospheric mass density...
Loading historical data...
Loading historical data...
Loading historical data...
Loading historical data...
Loading historical data...
Loading historical data...
Loading historical data...

Documentation

Showing up to 5 results
|